SL-16 DEB, 43369

Orbit data source: Space-Track

SL-16 DEB, 43369 is space debris in SSO originally from a launch on Mon, 10 Dec 2001 UTC launched from the Tyuratam Missile And Space Complex (TTMTR). Debris objects in space refer to the collection of defunct objects orbiting the Earth. Examples of debris include non-operational satellites, rocket bodies, and fragments generated from explosions, collisions, or faulty payload assembly.

Loading next visibility...
Identifier
43369, 2001-056N
Orbit
SSO
Country
Flag of CISCIS
Related business
Manufacturer
Unknown
Mission
Spacecraft
Bus & Motor
Unknown
Mass
Unknown
Launch date (UTC)
2001-12-10 (24 years ago)
Launch vehicle
Unknown
Launch site
Tyuratam Missile And Space Complex (TTMTR)
Object type
Payload
Rocket body
Debris
Shape & HBR
Unknown shape, 0.1 m
Radar Cross Section
Small (<0.1 m²)

Expand to show TLE details & history
Last TLE update: 6 hours ago

TLE from 6 hours ago
0 SL-16 DEB
1 43369U 01056N   26150.56318581  .00006984  00000-0  24174-2 0  9995
2 43369  99.2877  54.9227 0073213   9.1829 114.1074 14.34515994628529
Epoch: 2026-05-30T13:30Z
TLE epoch observation values (Epoch: 2026-05-30T13:30:59.253Z)
Latitude
54.95219°
Longitude
157.50753°
Altitude
807.441 km
Speed
7.444 km/s
True Right ascension
16h 33m 19s
True Declination
54° 47' 29"
Sunlit
Object was in daylight at epoch
Visualization orbit readout
Latitude
Unknown
Longitude
Unknown
Altitude
Unknown
Speed
Unknown
Apparent Right ascension
Unknown
Apparent Declination
Unknown
Sunlit
N/A
Visualization observer readout
Local Sidereal Time
05:02:25
Azimuth
Unknown
Elevation
Unknown
Doppler factor
Unknown
Orbital elements
Apogee altitude
826.205 km
Perigee altitude
721.481 km
Semi-major axis
7,151.98 km
Eccentricity
0.00732
Inclination
99.2877°
RAAN
54.9227°
Arg. of periapsis
9.1829°
True anomaly
114.87031°
Mean anomaly
114.1074°
Eccentric anomaly
114.48914°
Mean motion
3.58842 °/min
Orbital period
100.32 mins
BSTAR
0.0024174
Loading maneuver chart data...
Computing Atmospheric mass density...
Loading historical data...
Loading historical data...
Loading historical data...
Loading historical data...
Loading historical data...
Loading historical data...
Loading historical data...

Documentation

Showing up to 5 results
|